GW3691 Weather Reports


Display with metric or nautical units.
time (UTC)temp
F
wind
direction
speed
MPH
gust
MPH
rain 1hr
in
rain 24hr
in
rain mn
in
humidity
%
barometer
mb
20260503024410 64 172 2.0 2.0 0.05 0.66 0.66 94 1017.2
20260503023907 64 127 1.0 1.0 0.05 0.66 0.66 94 1016.8
20260503023404 64 151 0.0 0.0 0.00 0.65 0.65 94 1017.1
20260503022901 65 163 2.0 2.0 0.00 0.65 0.65 94 1016.9
20260503022355 65 150 0.0 0.0 0.00 0.65 0.65 94 1017.0
20260503021852 65 223 1.0 1.0 0.00 0.65 0.65 94 1016.8
20260503021349 65 13 2.0 2.0 0.00 0.65 0.65 94 1017.0
20260503020846 65 158 0.0 1.0 0.00 0.65 0.65 94 1016.9
20260503020344 65 264 2.0 3.0 0.00 0.65 0.65 94 1016.9
20260503015840 66 200 5.0 7.0 0.00 0.65 0.65 94 1016.4
20260503015337 66 175 1.0 2.0 0.00 0.65 0.65 95 1016.7
20260503014832 67 181 2.0 5.0 0.00 0.65 0.65 95 1016.4
20260503014330 68 168 0.0 1.0 0.00 0.65 0.65 95 1016.2
20260503013827 68 159 0.0 1.0 0.00 0.65 0.65 95 1015.8
20260503013325 68 140 1.0 1.0 0.00 0.65 0.65 95 1015.6
20260503012822 68 165 0.0 1.0 0.00 0.65 0.65 95 1015.6
20260503012319 68 223 1.0 2.0 0.00 0.65 0.65 95 1015.8
20260503011816 69 167 0.0 1.0 0.00 0.65 0.65 95 1015.9
20260503011313 69 161 0.0 0.0 0.00 0.65 0.65 95 1015.7
20260503010809 69 148 0.0 0.0 0.00 0.65 0.65 95 1015.8
20260503010307 69 165 0.0 0.0 0.00 0.65 0.65 94 1016.0
20260503005804 69 168 0.0 0.0 0.00 0.65 0.65 94 1015.8
20260503005301 69 180 0.0 0.0 0.00 0.65 0.65 94 1015.5
20260503004756 69 163 0.0 0.0 0.00 0.65 0.65 94 1015.5
20260503004255 69 164 0.0 0.0 0.00 0.65 0.65 94 1015.5
20260503003751 69 168 0.0 1.0 0.07 0.65 0.65 94 1015.4
20260503003249 69 155 0.0 0.0 0.12 0.65 0.65 93 1015.2
20260503002745 69 196 1.0 2.0 0.31 0.64 0.64 93 1015.2
20260503002242 71 54 5.0 8.0 0.19 0.62 0.62 93 1014.8
20260503001738 71 127 1.0 2.0 0.00 0.59 0.59 93 1014.8
20260503001235 71 162 0.0 0.0 0.00 0.59 0.59 93 1014.8
20260503000733 71 171 0.0 0.0 0.00 0.59 0.59 93 1014.6
20260503000230 71 167 0.0 0.0 0.00 0.59 0.59 93 1014.1
20260502235727 71 158 0.0 0.0 0.00 0.59 0.59 93 1014.2
20260502235225 71 167 0.0 0.0 0.00 0.59 0.59 93 1014.4
20260502234721 71 203 3.0 3.0 0.00 0.59 0.59 93 1014.6
20260502234218 71 170 0.0 0.0 0.00 0.59 0.59 93 1014.2
20260502233714 71 176 0.0 1.0 0.00 0.59 0.59 92 1013.9
20260502233211 71 166 0.0 0.0 0.00 0.59 0.59 92 1014.3
20260502232706 71 168 0.0 1.0 0.00 0.59 0.59 92 1014.2
20260502232204 71 173 1.0 1.0 0.00 0.59 0.59 92 1014.3
20260502231700 71 175 0.0 1.0 0.00 0.59 0.59 92 1014.2
20260502231158 71 176 0.0 0.0 0.00 0.59 0.59 92 1013.6
20260502230657 71 194 1.0 1.0 0.00 0.59 0.59 92 1013.6
20260502230155 71 179 1.0 1.0 0.00 0.59 0.59 92 1013.5
20260502225650 71 176 1.0 2.0 0.00 0.59 0.59 92 1013.6
20260502225148 71 195 1.0 1.0 0.00 0.59 0.59 92 1013.4
20260502224644 71 218 3.0 3.0 0.00 0.59 0.59 92 1013.7
20260502224141 71 164 1.0 3.0 0.00 0.59 0.59 92 1013.6
20260502223638 71 176 2.0 2.0 0.00 0.59 0.59 92 1013.7
20260502223136 71 168 1.0 1.0 0.00 0.59 0.59 92 1013.2
20260502222634 71 191 1.0 1.0 0.00 0.59 0.59 92 1013.6
20260502222130 71 198 2.0 2.0 0.00 0.59 0.59 92 1013.2
20260502221626 71 208 2.0 2.0 0.00 0.59 0.59 92 1013.2
20260502221123 71 181 2.0 2.0 0.00 0.59 0.59 92 1013.1
20260502220619 71 187 1.0 1.0 0.00 0.59 0.59 92 1013.0
20260502220110 71 184 1.0 1.0 0.00 0.59 0.59 92 1012.8
20260502215608 71 167 1.0 1.0 0.00 0.59 0.59 91 1012.7
20260502215104 71 188 1.0 2.0 0.00 0.59 0.59 91 1012.6
20260502214602 71 200 1.0 2.0 0.00 0.59 0.59 91 1012.7
20260502214059 71 165 1.0 1.0 0.00 0.59 0.59 91 1012.6
20260502213555 71 162 0.0 0.0 0.00 0.59 0.59 91 1012.6
20260502213053 71 182 1.0 1.0 0.00 0.59 0.59 91 1012.3
20260502212552 71 204 4.0 6.0 0.00 0.59 0.59 91 1012.4
20260502212049 71 190 3.0 5.0 0.00 0.59 0.59 91 1012.2
20260502211545 71 161 1.0 1.0 0.00 0.59 0.59 91 1012.3
20260502211042 71 177 1.0 1.0 0.00 0.59 0.59 91 1011.9
20260502210539 71 180 1.0 2.0 0.00 0.59 0.59 91 1012.3
20260502210036 70 187 1.0 2.0 0.00 0.59 0.59 91 1012.5
20260502205533 70 205 3.0 3.0 0.00 0.59 0.59 91 1012.6
20260502205030 70 167 3.0 3.0 0.00 0.59 0.59 92 1012.7
20260502204526 70 229 2.0 2.0 0.00 0.59 0.59 92 1012.6
20260502204025 70 178 2.0 2.0 0.00 0.59 0.59 92 1012.8
20260502203521 70 203 2.0 2.0 0.00 0.59 0.59 92 1012.5
20260502203018 69 217 1.0 2.0 0.00 0.59 0.59 93 1012.5
20260502202514 69 224 1.0 1.0 0.00 0.59 0.59 93 1012.6
20260502202013 69 205 2.0 2.0 0.00 0.59 0.59 93 1012.6
20260502201508 69 237 5.0 7.0 0.00 0.59 0.59 93 1012.0
20260502201005 69 207 4.0 6.0 0.00 0.59 0.59 93 1013.0
20260502200501 69 26 2.0 2.0 0.00 0.59 0.59 93 1012.9
20260502195959 69 225 4.0 6.0 0.05 0.59 0.59 93 1013.0
20260502195456 68 190 2.0 3.0 0.05 0.59 0.59 93 1013.6
20260502194951 69 212 4.0 5.0 0.07 0.58 0.58 93 1013.9
20260502194448 68 194 4.0 5.0 0.07 0.58 0.58 93 1014.0
20260502193944 68 172 1.0 1.0 0.00 0.57 0.57 93 1013.7
20260502193442 68 173 3.0 5.0 0.00 0.57 0.57 93 1013.8
20260502192938 68 194 5.0 7.0 0.00 0.57 0.57 93 1013.3
20260502192435 68 247 4.0 6.0 0.00 0.57 0.57 93 1013.6
20260502191931 68 197 5.0 6.0 0.00 0.57 0.57 94 1014.0
20260502191429 68 182 4.0 6.0 0.00 0.57 0.57 94 1013.7
20260502190926 68 197 2.0 3.0 0.00 0.57 0.57 94 1014.0
20260502190424 68 240 2.0 5.0 0.05 0.57 0.57 94 1013.7
20260502185920 68 168 2.0 2.0 0.17 0.57 0.57 94 1013.9
20260502185415 68 177 1.0 1.0 0.19 0.56 0.56 94 1013.7
20260502184913 68 227 1.0 2.0 0.19 0.54 0.54 93 1013.3
20260502184408 68 200 1.0 1.0 0.24 0.53 0.53 93 1013.7
20260502183904 68 188 3.0 5.0 0.24 0.51 0.51 93 1013.8
20260502183400 68 182 2.0 2.0 0.19 0.48 0.48 93 1013.9
20260502182856 68 173 2.0 3.0 0.05 0.46 0.46 93 1014.3
20260502182353 69 168 2.0 3.0 0.12 0.45 0.45 93 1014.7
20260502181849 69 233 5.0 8.0 0.35 0.44 0.44 93 1014.9
20260502181348 70 311 7.0 9.0 2.34 0.43 0.43 93 1015.2
20260502180845 73 239 12.0 15.0 1.44 0.27 0.27 91 1015.7
20260502180341 74 178 1.0 1.0 0.24 0.04 0.04 88 1013.9
20260502170300 81 222 4.0 6.0 0.00 0.00 0.00 70 1013.7
20260502164248 82 167 2.0 2.0 0.00 0.00 0.00 69 1013.5
20260502163743 82 203 2.0 2.0 0.00 0.00 0.00 70 1013.6
20260502163240 82 192 3.0 3.0 0.00 0.00 0.00 71 1013.9
20260502162737 82 198 1.0 2.0 0.00 0.00 0.00 72 1013.7
20260502162234 81 218 3.0 3.0 0.00 0.00 0.00 72 1013.8
20260502161731 80 170 2.0 2.0 0.00 0.00 0.00 72 1013.9
20260502161227 80 186 3.0 5.0 0.00 0.00 0.00 73 1014.1
20260502160726 80 234 4.0 5.0 0.00 0.00 0.00 73 1014.1
20260502160225 80 215 3.0 5.0 0.00 0.00 0.00 73 1013.8
20260502152148 79 174 3.0 3.0 0.00 0.00 0.00 73 1014.0
20260502151646 78 185 1.0 2.0 0.00 0.00 0.00 74 1013.9
20260502151143 79 182 3.0 3.0 0.00 0.00 0.00 74 1014.2
20260502150640 78 177 1.0 1.0 0.00 0.00 0.00 76 1014.3
20260502150137 78 188 2.0 2.0 0.00 0.00 0.00 77 1014.5
20260502130525 73 167 1.0 1.0 0.00 0.00 0.00 90 1014.1
20260502123509 71 167 0.0 1.0 0.00 0.00 0.00 94 1013.7
20260502123005 71 164 0.0 1.0 0.00 0.00 0.00 95 1013.8
20260502122501 70 168 1.0 1.0 0.00 0.00 0.00 95 1013.7
20260502121959 70 187 1.0 2.0 0.00 0.00 0.00 95 1013.7
20260502121456 70 174 0.0 0.0 0.00 0.00 0.00 95 1013.7
20260502120954 70 161 0.0 0.0 0.00 0.00 0.00 96 1013.6
20260502120450 70 169 0.0 0.0 0.00 0.00 0.00 96 1013.4
20260502115444 70 170 0.0 0.0 0.00 0.00 0.00 96 1013.5
20260502114940 69 170 0.0 0.0 0.00 0.00 0.00 96 1013.5
20260502114437 69 169 0.0 0.0 0.00 0.00 0.00 96 1013.4
20260502113934 69 174 0.0 0.0 0.00 0.00 0.00 96 1013.5
20260502113432 69 171 0.0 0.0 0.00 0.00 0.00 96 1013.6
20260502112931 69 172 0.0 0.0 0.00 0.00 0.00 96 1013.3
20260502112427 69 171 0.0 0.0 0.00 0.00 0.00 96 1013.6
20260502111925 69 166 0.0 0.0 0.00 0.00 0.00 96 1013.6
20260502111422 69 178 0.0 0.0 0.00 0.00 0.00 96 1013.3
20260502110919 69 178 0.0 0.0 0.00 0.00 0.00 96 1013.1
20260502110417 69 178 0.0 0.0 0.00 0.00 0.00 96 1013.1
20260502105914 69 178 0.0 0.0 0.00 0.00 0.00 95 1013.1
20260502105411 69 178 0.0 0.0 0.00 0.00 0.00 95 1012.9
20260502104909 69 178 0.0 0.0 0.00 0.00 0.00 95 1012.7
20260502104406 69 178 0.0 0.0 0.00 0.00 0.00 95 1012.8
20260502103903 69 176 0.0 0.0 0.00 0.00 0.00 95 1012.6
20260502103401 69 175 0.0 0.0 0.00 0.00 0.00 95 1012.3
20260502102857 69 175 0.0 0.0 0.00 0.00 0.00 95 1012.4
20260502102354 69 175 0.0 0.0 0.00 0.00 0.00 95 1012.3
20260502101852 69 175 0.0 0.0 0.00 0.00 0.00 95 1012.4
20260502101350 69 173 0.0 0.0 0.00 0.00 0.00 95 1012.2
20260502100848 69 173 0.0 0.0 0.00 0.00 0.00 95 1012.4
20260502100347 70 173 0.0 0.0 0.00 0.00 0.00 95 1012.5
20260502091320 70 155 0.0 0.0 0.00 0.00 0.00 94 1013.2
20260502090818 70 165 0.0 0.0 0.00 0.00 0.00 94 1013.2
20260502090315 70 165 0.0 0.0 0.00 0.00 0.00 93 1013.4
20260502071210 72 170 0.0 0.0 0.00 0.00 0.00 92 1013.7
20260502070708 72 166 0.0 0.0 0.00 0.00 0.00 92 1013.9
20260502070205 72 155 0.0 0.0 0.00 0.00 0.00 92 1013.6
20260502065704 73 157 0.0 0.0 0.00 0.00 0.00 91 1013.5
20260502065201 73 163 0.0 0.0 0.00 0.00 0.00 91 1013.7
20260502064700 73 181 0.0 0.0 0.00 0.00 0.00 91 1013.9
20260502064156 73 155 0.0 0.0 0.00 0.00 0.00 91 1013.9
20260502063654 73 152 0.0 0.0 0.00 0.00 0.00 91 1013.9
20260502063152 73 154 0.0 0.0 0.00 0.00 0.00 91 1013.8
20260502062649 73 147 0.0 0.0 0.00 0.00 0.00 91 1014.0
20260502062146 73 166 0.0 0.0 0.00 0.00 0.00 91 1014.5
20260502061644 73 132 0.0 1.0 0.00 0.00 0.00 91 1014.2
20260502061142 73 159 0.0 0.0 0.00 0.00 0.00 91 1014.2
20260502060642 73 147 1.0 2.0 0.00 0.00 0.00 91 1014.3
20260502060139 73 155 0.0 0.0 0.00 0.00 0.00 92 1014.3
20260502055637 73 335 1.0 2.0 0.00 0.00 0.00 92 1014.2
20260502055134 73 111 1.0 1.0 0.00 0.00 0.00 92 1014.4
20260502054633 73 151 0.0 0.0 0.00 0.00 0.00 92 1014.4
20260502054130 73 158 1.0 1.0 0.00 0.00 0.00 92 1014.5
20260502053627 73 150 0.0 1.0 0.00 0.00 0.00 91 1014.5
20260502053125 73 168 0.0 0.0 0.00 0.00 0.00 91 1014.5
20260502052623 73 159 0.0 0.0 0.00 0.00 0.00 91 1014.7
20260502052121 73 172 0.0 0.0 0.00 0.00 0.00 91 1014.6
20260502051619 73 95 1.0 2.0 0.00 0.00 0.00 91 1014.9
20260502051117 73 168 0.0 0.0 0.00 0.00 0.00 91 1014.8
20260502050612 73 165 0.0 0.0 0.00 0.00 0.00 91 1015.0
20260502050109 73 166 0.0 0.0 0.00 0.00 0.00 92 1014.9
20260502045606 72 158 0.0 0.0 0.00 0.00 0.00 92 1014.8
20260502045103 72 173 0.0 0.0 0.00 0.00 0.00 92 1014.8
20260502044559 72 166 0.0 0.0 0.00 0.00 0.00 92 1015.1
20260502044056 71 170 0.0 0.0 0.00 0.00 0.00 92 1014.9
20260502043554 71 175 0.0 0.0 0.00 0.00 0.00 92 1014.9
20260502043050 71 168 0.0 0.0 0.00 0.00 0.00 93 1015.2
20260502042545 71 165 0.0 0.0 0.00 0.00 0.00 92 1014.8
20260502042043 71 158 0.0 0.0 0.00 0.00 0.00 92 1014.6
20260502041540 71 176 1.0 2.0 0.00 0.00 0.00 92 1014.6
20260502041037 71 179 0.0 0.0 0.00 0.00 0.00 92 1014.7
20260502040533 71 173 0.0 0.0 0.00 0.00 0.00 92 1014.4
20260502040031 71 173 0.0 0.0 0.00 0.00 0.00 92 1014.4
20260502035526 71 172 0.0 0.0 0.00 0.00 0.00 92 1014.5
20260502035024 71 173 0.0 0.0 0.00 0.00 0.00 92 1014.6
20260502034522 71 173 0.0 0.0 0.00 0.00 0.00 92 1014.6
20260502034021 71 173 0.0 0.0 0.00 0.00 0.00 91 1014.8
20260502033518 71 173 0.0 0.0 0.00 0.00 0.00 91 1014.9
20260502033015 71 173 0.0 0.0 0.00 0.00 0.00 91 1014.8
20260502032511 71 173 0.0 0.0 0.00 0.00 0.00 91 1014.9
20260502032008 71 173 0.0 0.0 0.00 0.00 0.00 91 1014.8
20260502031506 71 173 0.0 0.0 0.00 0.00 0.00 91 1014.9
20260502031004 72 173 0.0 0.0 0.00 0.00 0.00 91 1015.0
20260502030502 71 173 0.0 0.0 0.00 0.00 0.00 90 1014.9
20260502030000 71 173 0.0 0.0 0.00 0.00 0.00 90 1015.0
20260502025456 72 173 0.0 0.0 0.00 0.00 0.00 90 1014.7
20260502024954 72 168 0.0 0.0 0.00 0.00 0.00 90 1014.8